Retour au catalogue

CZ-6A DEB

ActifPO
NORAD 68407·DEBRIS·🇨🇳 China

Lancé Nov 11, 2022 depuis Taiyuan Satellite Launch Center

Loading…

Prochains Passages (prochaines 24 heures)

TLE

FraisSource: Space-Track

Époque: Sep 14, 2026, 05:22 UTC

1 68407U 22151AJJ 26257.22396583  .00006585  00000-0  99712-3 0  9991
2 68407  98.7969 357.5499 0085383  33.7272 326.9325 14.72094524178125

Suivez CZ-6A DEB en temps réel avec AllMySat

Download on the App Store